• In Romania
  • List of Countries
  • For 7 days
  • Water Temperature
  • Satellite Maps
  • Weather Map
  • Weather Widgets
  • user-avatar
    Login

    Hourly Weather Rovinj

    Today, 16 December, Saturday

    Time Temperature Precipitation Wind Pressure Humidity
    00:00 +7°C° 1.7 mm 6 mps 747 mmHg 87%
    01:00 +4°C° 0 mm 8 mps 748 mmHg 79%
    02:00 +4°C° 0.5 mm 7 mps 748 mmHg 81%
    03:00 +4°C° 0.5 mm 6 mps 749 mmHg 82%
    04:00 +4°C° 0.5 mm 6 mps 749 mmHg 84%
    05:00 +5°C° 0.1 mm 5 mps 750 mmHg 84%
    06:00 +5°C° 0.1 mm 5 mps 750 mmHg 84%
    07:00 +5°C° 0.1 mm 4 mps 751 mmHg 84%
    08:00 +6°C° 0.1 mm 4 mps 751 mmHg 83%
    09:00 +6°C° 0.1 mm 4 mps 752 mmHg 83%
    10:00 +6°C° 0.1 mm 4 mps 753 mmHg 83%
    11:00 +6°C° 0.1 mm 4 mps 753 mmHg 82%
    12:00 +7°C° 0.1 mm 4 mps 753 mmHg 81%
    13:00 +7°C° 0.1 mm 4 mps 754 mmHg 80%
    14:00 +7°C° 0.1 mm 4 mps 754 mmHg 80%
    15:00 +6°C° 0.1 mm 5 mps 754 mmHg 80%
    16:00 +6°C° 0.1 mm 5 mps 755 mmHg 80%
    17:00 +6°C° 0.1 mm 5 mps 755 mmHg 80%
    18:00 +4°C° 0.1 mm 6 mps 755 mmHg 81%
    19:00 +4°C° 0.1 mm 6 mps 756 mmHg 81%
    20:00 +4°C° 0.1 mm 6 mps 757 mmHg 80%
    21:00 +3°C° 0.1 mm 6 mps 757 mmHg 79%
    22:00 +3°C° 0.1 mm 6 mps 758 mmHg 79%
    23:00 +3°C° 0 mm 6 mps 758 mmHg 78%

    Tomorrow, 17 December, Sunday

    Time Temperature Precipitation Wind Pressure Humidity
    00:00 +3°C° 0 mm 6 mps 759 mmHg 78%
    01:00 +2°C° 0 mm 6 mps 759 mmHg 77%
    02:00 +2°C° 0 mm 5 mps 759 mmHg 77%
    03:00 +2°C° 0 mm 5 mps 760 mmHg 77%
    04:00 +2°C° 0 mm 5 mps 760 mmHg 77%
    05:00 +2°C° 0 mm 5 mps 760 mmHg 78%
    06:00 +1°C° 0 mm 4 mps 761 mmHg 78%
    07:00 +1°C° 0 mm 4 mps 762 mmHg 78%
    08:00 +3°C° 0 mm 4 mps 762 mmHg 77%
    09:00 +4°C° 0 mm 4 mps 763 mmHg 76%
    10:00 +5°C° 0 mm 4 mps 763 mmHg 75%
    11:00 +5°C° 0 mm 3 mps 763 mmHg 71%
    12:00 +7°C° 0 mm 3 mps 764 mmHg 67%
    13:00 +8°C° 0 mm 3 mps 764 mmHg 63%
    14:00 +7°C° 0 mm 3 mps 764 mmHg 65%
    15:00 +5°C° 0 mm 3 mps 764 mmHg 67%
    16:00 +4°C° 0 mm 3 mps 764 mmHg 69%
    17:00 +4°C° 0 mm 3 mps 765 mmHg 70%
    18:00 +3°C° 0 mm 3 mps 765 mmHg 72%
    19:00 +3°C° 0 mm 3 mps 766 mmHg 73%
    20:00 +3°C° 0 mm 3 mps 767 mmHg 72%
    21:00 +3°C° 0 mm 3 mps 767 mmHg 72%
    22:00 +3°C° 0 mm 3 mps 768 mmHg 72%
    23:00 +2°C° 0 mm 3 mps 768 mmHg 72%

    Day after tomorrow, 18 December, Monday

    Time Temperature Precipitation Wind Pressure Humidity
    00:00 +2°C° 0 mm 3 mps 768 mmHg 72%
    01:00 +2°C° 0 mm 3 mps 768 mmHg 72%
    02:00 +3°C° 0 mm 2 mps 768 mmHg 71%
    03:00 +3°C° 0 mm 2 mps 768 mmHg 71%
    04:00 +3°C° 0 mm 2 mps 768 mmHg 70%
    05:00 +3°C° 0 mm 2 mps 768 mmHg 70%
    06:00 +2°C° 0 mm 2 mps 768 mmHg 70%
    07:00 +2°C° 0 mm 2 mps 768 mmHg 70%
    08:00 +4°C° 0 mm 2 mps 768 mmHg 68%
    09:00 +5°C° 0 mm 2 mps 768 mmHg 67%
    10:00 +6°C° 0 mm 2 mps 768 mmHg 65%
    11:00 +6°C° 0 mm 2 mps 768 mmHg 65%
    12:00 +7°C° 0 mm 2 mps 767 mmHg 64%
    13:00 +7°C° 0 mm 2 mps 767 mmHg 64%
    14:00 +7°C° 0 mm 2 mps 767 mmHg 68%
    15:00 +6°C° 0 mm 2 mps 766 mmHg 72%
    16:00 +5°C° 0 mm 2 mps 766 mmHg 77%
    17:00 +6°C° 0 mm 1 mps 766 mmHg 77%
    18:00 +6°C° 0 mm 1 mps 767 mmHg 78%
    19:00 +6°C° 0 mm 1 mps 767 mmHg 79%
    20:00 +4°C° 0 mm 2 mps 767 mmHg 80%
    21:00 +4°C° 0 mm 2 mps 768 mmHg 82%
    22:00 +3°C° 0 mm 3 mps 768 mmHg 83%
    23:00 +3°C° 0 mm 3 mps 769 mmHg 82%

    19 December, Tuesday

    Time Temperature Precipitation Wind Pressure Humidity
    00:00 +3°C° 0 mm 3 mps 769 mmHg 82%
    01:00 +3°C° 0 mm 3 mps 770 mmHg 81%
    02:00 +2°C° 0 mm 3 mps 770 mmHg 80%
    03:00 +1°C° 0 mm 4 mps 770 mmHg 79%
    04:00 +1°C° 0 mm 4 mps 770 mmHg 77%
    05:00 +1°C° 0 mm 4 mps 771 mmHg 76%
    06:00 +1°C° 0 mm 4 mps 772 mmHg 75%
    07:00 +1°C° 0 mm 4 mps 772 mmHg 74%
    08:00 +3°C° 0 mm 4 mps 773 mmHg 72%
    09:00 +3°C° 0 mm 3 mps 773 mmHg 70%
    10:00 +4°C° 0 mm 3 mps 774 mmHg 68%
    11:00 +5°C° 0 mm 3 mps 774 mmHg 65%
    12:00 +5°C° 0 mm 3 mps 774 mmHg 62%
    13:00 +7°C° 0 mm 2 mps 773 mmHg 59%
    14:00 +6°C° 0 mm 2 mps 773 mmHg 63%
    15:00 +6°C° 0 mm 2 mps 773 mmHg 66%
    16:00 +5°C° 0 mm 2 mps 773 mmHg 69%
    17:00 +4°C° 0 mm 2 mps 774 mmHg 71%
    18:00 +4°C° 0 mm 2 mps 774 mmHg 73%
    19:00 +3°C° 0 mm 3 mps 774 mmHg 75%
    20:00 +2°C° 0 mm 3 mps 775 mmHg 74%
    21:00 +2°C° 0 mm 3 mps 775 mmHg 74%
    22:00 +2°C° 0 mm 3 mps 776 mmHg 74%
    23:00 +2°C° 0 mm 3 mps 776 mmHg 74%

    20 December, Wednesday

    Time Temperature Precipitation Wind Pressure Humidity
    00:00 +2°C° 0 mm 3 mps 776 mmHg 74%
    01:00 +2°C° 0 mm 3 mps 776 mmHg 73%
    02:00 +1°C° 0 mm 3 mps 776 mmHg 74%
    03:00 +1°C° 0 mm 3 mps 776 mmHg 74%
    04:00 +1°C° 0 mm 3 mps 776 mmHg 75%
    05:00 +1°C° 0 mm 3 mps 776 mmHg 76%
    06:00 +1°C° 0 mm 3 mps 776 mmHg 76%
    07:00 +1°C° 0 mm 3 mps 776 mmHg 77%
    08:00 +2°C° 0 mm 3 mps 776 mmHg 75%
    09:00 +3°C° 0 mm 3 mps 776 mmHg 72%
    10:00 +5°C° 0 mm 2 mps 776 mmHg 70%
    11:00 +6°C° 0 mm 2 mps 776 mmHg 68%
    12:00 +6°C° 0 mm 2 mps 776 mmHg 65%
    13:00 +7°C° 0 mm 3 mps 775 mmHg 63%
    14:00 +5°C° 0 mm 3 mps 775 mmHg 67%
    15:00 +5°C° 0 mm 3 mps 775 mmHg 71%
    16:00 +4°C° 0 mm 3 mps 775 mmHg 75%
    17:00 +4°C° 0 mm 3 mps 775 mmHg 76%
    18:00 +3°C° 0 mm 3 mps 775 mmHg 77%
    19:00 +3°C° 0 mm 3 mps 775 mmHg 79%
    20:00 +3°C° 0 mm 3 mps 775 mmHg 78%
    21:00 +3°C° 0 mm 3 mps 775 mmHg 78%
    22:00 +3°C° 0 mm 4 mps 775 mmHg 78%
    23:00 +3°C° 0 mm 4 mps 775 mmHg 78%

    21 December, Thursday

    Time Temperature Precipitation Wind Pressure Humidity
    00:00 +3°C° 0 mm 4 mps 775 mmHg 78%
    01:00 +3°C° 0 mm 4 mps 775 mmHg 78%
    02:00 +3°C° 0 mm 3 mps 774 mmHg 77%
    03:00 +3°C° 0 mm 3 mps 774 mmHg 77%
    04:00 +3°C° 0 mm 3 mps 774 mmHg 77%
    05:00 +3°C° 0 mm 3 mps 774 mmHg 76%
    06:00 +4°C° 0 mm 3 mps 774 mmHg 76%
    07:00 +4°C° 0 mm 3 mps 774 mmHg 75%
    08:00 +5°C° 0 mm 3 mps 774 mmHg 74%
    09:00 +7°C° 0 mm 3 mps 774 mmHg 72%
    10:00 +8°C° 0 mm 3 mps 775 mmHg 70%
    11:00 +8°C° 0 mm 3 mps 774 mmHg 69%
    12:00 +9°C° 0 mm 3 mps 774 mmHg 68%
    13:00 +10°C° 0 mm 3 mps 773 mmHg 67%
    14:00 +9°C° 0 mm 3 mps 773 mmHg 70%
    15:00 +8°C° 0 mm 3 mps 773 mmHg 74%
    16:00 +7°C° 0 mm 2 mps 773 mmHg 78%
    17:00 +7°C° 0 mm 2 mps 773 mmHg 79%
    18:00 +7°C° 0 mm 2 mps 773 mmHg 80%
    19:00 +7°C° 0 mm 2 mps 773 mmHg 81%
    20:00 +7°C° 0 mm 2 mps 773 mmHg 81%
    21:00 +7°C° 0 mm 2 mps 773 mmHg 80%
    22:00 +7°C° 0 mm 2 mps 773 mmHg 80%
    23:00 +7°C° 0 mm 2 mps 773 mmHg 81%
    Show more